Weather in Staraya Malykla

Russia / Ulyanovsk Oblast     54°13′37″N   49°49′55″E
temp.,
°C
wind,
m/s
gust,
m/s
humid.,
%
clouds,
%
prec.,
mm/h
press.,
hPa
HPBL,
m
14 april, wed
wed1401:00+10s22785 0.0 103118
04:00+8sse22825 0.0 103113
07:00+8se24865 0.0 103171
10:00+14se46786 0.0 1030473
13:00+17se45625 0.0 1028883
16:00+18se45585 0.0 1027937
19:00+15ese24712 0.0 102559
22:00+11se25805 0.0 102584
15 april, thu
thu1501:00+10se22901 0.0 102433
04:00+8se22900 0.0 102320
07:00+8ese23860 0.0 102258
10:00+14se34580 0.0 1021421
13:00+18sse34461 0.0 1020979
16:00+20s344081 0.0 10191336
19:00+16w11591 0.0 101811
22:00+13n22671 0.0 101910
16 april, fri
fri1601:00+11ne227420 0.0 101812
04:00+9nne227661 0.0 101922
07:00+9nne247849 0.0 101987
10:00+15ne346269 0.0 1020464
13:00+18ne344944 0.0 10201141
16:00+19ne55477 0.0 10201713
19:00+14ne510645 0.1 1021536
22:00+10ne511755 0.1 1023435
17 april, sat
sat1701:00+8ne511845 0.0 1023384
04:00+6ne511814 0.0 1024414
07:00+6ne512755 0.0 1025507
10:00+10ne68511 0.0 1025765
13:00+13ne67370 0.0 10251211
16:00+13ne57325 0.0 10251373
19:00+10ne48442 0.0 1025344
22:00+6nne38600 0.0 1026170
18 april, sun
sun1801:00+5nne35680 0.0 102699
04:00+4nne36740 0.0 1026111
07:00+4nne27740 0.0 1027200
10:00+10ne46520 0.0 1026871
13:00+13ne56395 0.0 10261594
16:00+13nne564012 0.0 10261866
19:00+11nne485253 0.0 1026309
22:00+7ne5116219 0.0 1028633